[Date Prev][Date Next][Thread Prev][Thread Next][Date Index][Thread Index]

[jamsat-news:1538] jas2info #234



========================   最新情報   ==============================

        Last updated :Sat.14JUL2001  16:00(JST)   #234
        
====================================================================
   
  1)アマチュア通信衛星情報、FOシリーズの軌道要素、テレメトリ、QSOの
   状況等をまとめてみました.
   
   FO−29の2001年7月14日(土)の10:15(JST)のパスでは
  JARLのホームページのとうりアナログ運用でした。 今週の観測した
  テレメトリーと最終の分析結果を掲載しておきます.

AS24229C1  14JUN2001
10:15-10:23(JST)
FREQ435.798-.790MHz

HI HI AE C7 88 55 00 D4 7D 6F 09 18 86 7B 5B 63 9A 97 B0 9B A7 A4 A4 A7 A3 
HI HI AE C7 88 55 00 D4 7D 6F 09 27 8A 79 5E 63 9A 97 B0 70 A7 A4 A4 A7 A3
HI HI AE C7 88 55 00 D4 7D 6F 09 18 8E 74 68 63 9B 97 B0 75 A7 A3 A5 A7 A3 
HI HI AE C7 88 55 00 D4 7D 6F 09 18 90 6E 66 63 9B 97 B0 AD A7 A3 A5 A7 A3 
HI HI AE C7 88 55 00 D4 7D 6F 09 18 91 66 67 63 9A 97 B0 7F A7 A3 A5 A7 A4 
HI HI AE C7 88 55 00 D4 7D 6F 09 18 91 5D 66 63 9B 98 B0 65 A7 A3 A5 A7 A4 
HI HI AE C7 88 55 00 D4 7D 6F 09 18 8F 55 6E 63 9B 98 B0 8C A7 A4 A5 A7 A4 
HI HI AE C7 88 55 00 D4 7D 6F 09 18 8B 47 6D 63 9B 98 B0 7A A6 A3 A5 A7 A3 
HI HI AE C7 88 55 00 D4 7D 6F 09 18 85 43 6F 64 9B 98 B0 5F A6 A3 A5 A7 A4 
HI HI AE C7 88 55 00 D4 7D 6F 09 18 7D 3B 77 63 9B 98 B0 72 A6 A3 A5 A7 A3 
HI HI AE C7 88 55 00 D4 7D 6F 09 18 74 35 7C 63 9A 98 B0 97 A6 A3 A5 A7 A3 
HI HI AE C7 88 55 00 D4 7D 6F 09 18 6A 30 7D 63 9A 97 B0 A1 A6 A3 A4 A7 A3 

AS24221C  13JUL2001
20:33-20:51(JST)
FREQ.435.804-.787MHz

HI HI AE C7 88 55 00 D4 70 B3 09 73 9D 6A 64 63 9A 98 B0 8B 9E A3 AA A3 A4 
HI HI AE C7 88 55 00 D4 70 B3 09 73 9E 6A 66 63 53 98 B0 6E 9E A3 A9 A3 A4 
HI HI AE C7 88 55 00 D4 70 B3 09 73 9F 69 5B 63 9A 98 B0 74 9E A3 A9 A3 A4 
HI HI AE C7 88 55 00 D4 70 B3 09 53 9F 6A 59 63 9B 98 B0 8B 9E A3 A9 A3 A4 
HI HI AE C7 88 55 00 D4 70 B3 09 73 9F 6A 56 63 9B 98 B0 5E 9E A3 A9 A3 A4 
HI HI AE C7 88 55 00 D4 70 B3 09 73 9F 6A 5E 63 9O 98 B0 79 9E A3 A9 A3 A4 
HI HI AE C7 88 55 00 D4 70 B3 09 63 9F 6A 5E 63 9B 99 B9 76 9E A3 A9 A3 A5 
HI HI AE C7 88 55 00 D4 70 B3 09 73 9E 69 4E 64 9B 99 B0 63 9E A3 A9 A2 A4 
HI HI AE C7 88 55 00 D4 70 B3 09 73 9D 69 59 64 9A 98 B0 77 9E A3 A9 A2 A4 
HI HI AE C7 88 55 00 D4 70 B3 09 73 9C 68 49 64 9A 98 B0 83 9E A3 A9 A2 A4
HI HI AE C7 88 55 00 D4 70 B3 09 73 9A 69 4C 64 9A 98 B0 7E 9E A3 AA A3 A4 

AS24202C1   12JUl2001
10:21-10:27(JST)
FREQ.435.797-791MHz

HI HI AE C7 88 55 00 D4 00          55 56 63 9A 97 B0 6A A1 A5 AB A5 A3 
HI HI AE C7 88 55 00 D4 00             67 63 9A 97 B0 79 A1 A4 AA A5 A3 
HI HI AE C7 88 55 00 D4 00 09 91 85 55 66 63 9A 98 B0 77 A1 A4 AA A5 A3 
HI HI AE C7 EH8 5 00 D4 00 09       74 59 63 9A 98 B0 8O A1 A4 AA A5 A3 
HI HI AE C7 88 55 00 D4 00 09 66 89 67 59 63 9A 97 B0 54 A1 A4 AA A5 A3 
HI HI AE C7 78 55 00 D4 00 09 65 55 6B 5C 63 9A 97 B0 67 A1 A4 AA A5 A3 
HI HI AE C7 88 55 00 D4 00 09    65 55 59 63 9A 97 B0 60 A1 A4 AA A5 A3 
HI HI AE C7 88 55 00 D4 00 00 65 95 5F 5B 63 9A 97 B0 74 A1 A4 AA A5 A3 

AS24180C   10JUL2001
19:46-20:04(JST)
FREQ.435.803-.788MHz

HI HI AE C7 88 55 00 D4 B2 22 09 78 5E 8A 5C 63 9A 97 B0 91 A3 9F A1 A4 A1 
HI HI AE C7 88 55 00 D4 B2 22 09 78 63 83 5C 63 9A 97 B0 63 A3 9F A1 A3 A1 
HI HI AE C7 88 55 00 D4 B2 22 09 78 67 7B 5B 63 9A 97 B0 89 A3 9F A1 A3 A1 
HI HI AE C7 88 55 00 D4 B2 22 09 78 6B 72 5B 63 9A 98 B0 82 A3 9F A1 A3 A1 
HI HI AE C7 88 55 00 D4 B2 22 09 78 6F 6A 5A 63 9A 97 B0 83 A3 9F A1 A3 A1 
HI HI AE C7 88 55 00 D4 B2 22 09 78 72 61 5A 63 9A 97 B0 74 A3 9F A0 A3 A1 
HI HI AE C6 88 55 00 D4 B2 22 09 78 74 59 59 63 9A 97 B0 74 A3 9F A0 A3 A1 
HI HI AE C7 88 55 00 D4 B2 22 09 78 75 51 59 63 9A 97 B0 74 A3 9F A0 A3 A1 
HI HI AE C7 88 55 00 D4 B2 22 09 78 75 4A 58 63 9A 97 B0 74 A3 9F A0 A2 A1 
HI HI AE C7 88 55 00 D4 B2 22 09 78 73 3F 57 63 9A 97 B0 5E A3 9F 9F A2 A1 
HI HI AE C7 88 55 00 D4 B2 22 09 78 71 3A 56 63 9A 97 B0 73 A3 9F 9F A2 A1 
HI HI AE C7 88 55 00 D4 B2 22 09 78 6E 39 54 63 9A 97 B0 63 A3 9F 9F A2 A1 
HI HI AE C7 88 55 00 D4 B2 22 09 78 69 38 56 63 9A 98 B0 8C A4 9F (F A2 A1 
HI HI AE C7 88 55 00 D4 B2 22 09 78 65 38 56 63 9A 97 B0 8A A4 9F 9F A2 A1 
HI HI AE C7 88 55 00 D4 B2 22 09 78 60 3B 57 63 9A 97 B0 88 A4 9F 9F A2 A1 
HI HI AE C7 88 55 00 D4 B2 22 09 78 5B 3E 57 63 9A 97 B0 87 A4 9I 9F A2 A1 
HI HI AE C7 88 55 00 D4 B2 22 09 78 56 42 58 63 9A 98 B0 72 A4 9F 9F A1 A1 
HI HI AE C7 88 55 00 D4 B2 22 09 78 51 47 58 63 9A 98 B0 72 A4 9F 9F A1 A1 
HI HI AE C7 88 55 00 D4 B2 22 09 78 4C 50 58 63 9A 97 B0 52 A4 9F 9F A1 A1 
HI HI AE C7 88 55 00 D4 B2 22 09 78 48 55 57 63 9A 98 B0 75 A4 9F 9F A1 A1 
HI HI AE C7 88 55 00 D4 B2 22 09 78 45 5C 57 63 9A 97 B0 69 A4 A0 9E A1 A1 
HI HI AE C7 88 55 00 D4 B2 22 09 78 42 64 57 63 9A 98 B0 6D A4 A0 9E A1 A1 
HI HI AE C7 88 55 00 D4 B2 22 09 78 40 6D 58 63 9A 97 B0 83 A4 A0 9E A1 A2 

AS24166C  09JUL2001
19:03-19:10(JST)
FREQ.435.799-.790MHz

HI HI AE C7 88 55 00 D4 35 7C 09 18 76 73 5E 63 99 98 B0 6D A3 9A A1 A7 A2 
HI HI AE C7 88 55 00 D4 35 7C 09 18 7A 8F 67 63 9A 98 B0 78 A3 9A A1 A7 A2 
HI HI AE C7 88 55 00 D4 35 7C 09 18 7D 8A 62 63 9A 98 B0 74 A3 9A A1 A6 A2 
HI HI AE C7 88 55 00 D4 35 7C 09 18 80 85 5F 63 9A 98 B0 8D A3 9A A1 A6 A2 
HI HI AE C7 88 55 00 D4 35 7C 09 18 82 80 62 63 9A 98 B0 8A A3 9A A1 A6 A2 
HI HI AE C7 88 55 00 D5 35 7C 09 17 83 7C 6Z 63 9A 87 B0 86 A3 9B A0 A6 A3 
HI HI AE C7 88 55 00 D4 35 7C 09 17 83 78 6A 64 9A 98 B0 82 A3 9B A0 A6 A2 
HI HI AE C7 88 55 00 D4 35 7C 09 18 83 74 6B 63 9A 98 B0 7C A3 9B A0 A6 A2 
HI HI AE C7 88 55 00 D4 35 7C 09 18 82 71 6A 63 9A 98 B0 84 A3 9B A0 A6 A2 
HI HI AE C7 88 55 00 D4 35 7C 09 18 82 6E 68 63 9A 98 B0 82 A3 9B A0 A6 A2 
HI HI AE C7 88 55 00 D4 35 7C 09 18 81 6D 67 63 9A 97 B0 7C A3 9B A0 A6 A2 

 ------------------------ FO-29の軌道要素 ------------------------------        
 
  ■ 軌道要素1:「jamsat−keps:1018」より         
          SB KEPS @ AMSAT  $ORB01193.N
          2Line Orbital Elements 01193.AMSAT

HR AMSAT ORBITAL ELEMENTS FOR AMATEUR SATELLITES IN NASA FORMAT
FROM WA5QGD FORT WORTH,TX July 12, 2001
SEND SUBSCRIBE/UNSUBSCRIBE TO majordomo@amsat.org ONLY
BID: ORB01193.N

 DECODE 2-LINE ELSETS WITH THE FOLLOWING KEY:
 1 AAAAAU 00  0  0 BBBBB.BBBBBBBB  .CCCCCCCC  00000-0  00000-0 0  DDDZ
 2 AAAAA EEE.EEEE FFF.FFFF GGGGGGG HHH.HHHH III.IIII JJ.JJJJJJJJKKKKKZ
 KEY: A-CATALOGNUM B-EPOCHTIME C-DECAY D-ELSETNUM E-INCLINATION F-RAAN
 G-ECCENTRICITY H-ARGPERIGEE I-MNANOM J-MNMOTION K-ORBITNUM Z-CHECKSUM

FO-29
1 24278U 96046B   01192.68030947 -.00000022  00000-0  16898-4 0 04343
2 24278 098.5370 054.5671 0350515 298.5127 058.1131 13.52776173241950

 ■ 軌道要素2:「jamsat−keps:1019」より
        SB KEPS @ AMSAT  $ORB01193.O
        Orbital Elements  01193.OSCAR

HR AMSAT ORBITAL ELEMENTS FOR OSCAR SATELLITES
FROM WA5QGD FORT WORTH,TX July 12, 2001
SEND SUBSCRIBE/UNSUBSCRIBE TO majordomo@amsat.org ONLY
BID: ORB01193.O
TO ALL RADIO AMATEURS BT
 
Satellite: FO-29
Catalog number: 24278
Epoch time:      01192.68030947
Element set:    0434
Inclination:      098.5370 deg
RA of node:       054.5671 deg
Eccentricity:    0.0350515
Arg of perigee:   298.5127 deg
Mean anomaly:     058.1131 deg
Mean motion:   13.52776173 rev/day
Decay rate:       -2.2e-07 rev/day^2
Epoch rev:           24195
Checksum:              306

-------------------  FO-29(JAS-2)のテレメトリに関する情報  ---------------------- 
 
2)上記7月14日(土)のテレメトリの最終行を分析しておきます.

AS24229C1  14JUN2001
10:15-10:23(JST)
FREQ435.798-.790MHz

HI HI AE C7 88 55 00 D4 7D 6F 09 18 6A 30 7D 63 9A 97 B0 A1 A6 A3 A4 A7 A3 

テレメトリ   内 容       換算算値 単 位  
3C	磁気センサーZ軸=	51960.8	[nT]
3D	磁気センサX軸	=	23529.4	[nT]
4A	太陽電池発生電流=	 1225.5	[mA]
4B	B充放電電流	=	  -59.6	[mA]
4C	B端子電圧	=	   16.6	[V]
4D	B中間端子電圧	=	    7.3	[V]
5A	バス電圧	=	   17.3	[V]
5B	JTA送信電力	=	 1156.4	[mW]
5C 	構体温度1	= 	   17.4	[℃]
5D	構体温度2	=	   18.6	[℃]
6A	構体温度3	=	   18.2	[℃]
6B	構体温度4	=	   17.0	[℃]
6C	Bセル温度	=	   18.6	[℃]
   	
 ========================== FO-29(ふじ3号)のQSO情報等 ======================
   
 3)[jamsat-bb:

 ===============================================================================
   4)JARL のホームページに運用予定が記載されていましたのでご紹介します.
       ( http://www.jarl.or.jp/Japanese/3_Fuji/new/uy.htm )

        ■ ふじ3号/FOー29/JAS-2 ■  
   
     *** 運用予定について ***

 7月2日(月) 〜 10月1日(月)アナログ系運用 


  *なお,運用予定は都合により変更することがありますので予めご了承願います。

 照会先 : lab@jarl.or.jp

 最新の情報はテレホンサービス(03−3942−1000)をお聞きください。  
 以後の運用につきましては平成13年10月上旬にお知らせ致します。
    
-----------------------    FO−20(JAS-1b)道要素   -------------------------
  5)
  ■ 軌道要素1 :出典はFO-29「ふじ3号」に同じ.
  
FO-20
1 20480U 90013C   01192.72793190 -.00000010  00000-0  58964-4 0 03361
2 20480 099.0558 256.5588 0539643 253.6869 100.4254 12.83294235535244
 
  ■ 軌道要素2 :出典はFO−29「ふじ3号」に同じ.
               
Satellite: FO-20
Catalog number: 20480
Epoch time:      01192.72793190
Element set:    0336
Inclination:      099.0558 deg
RA of node:       256.5588 deg
Eccentricity:    0.0539643
Arg of perigee:   253.6869 deg
Mean anomaly:     100.4254 deg
Mean motion:   12.83294235 rev/day
Decay rate:       -1.0e-07 rev/day^2
Epoch rev:           53524
Checksum:              310

 --------------------------------------------------------------------------------
 
         ■ ふじ2号/FO−20/JAS-1b ■      
            
          「ふじ2号」 現況                                                                                  
             
   JAS-1b(ふじ2号)のCWテレメトリ信号に,1997年10月12日12時(JST)の
 日本上空通過時,3桁の数字が繰り返されるはずが3個の長音の繰り返しとなっているという
 異常が発見されました。この不具合は次の通過時からは回復していましたが13日15時20分の
 通過時に再び観測されました。現在はA0の送信が続いています。衛星のアナログ系中継モード
 動作は異常が無く,正常時のテレメトリ内容からは衛星の動作に異常は認められません。従って,
 直ちに衛星のミッションに影響することは無いと予想されますので,当面はアナログ系中継
 モードを継続します。衛星は既に打ち上げてから7年8ヶ月を経ておりますので,今後は監視を
 強化する予定です。アマチュア各位のレポートをお待ちします。
 -------------------------------------------------------------------------------- 
  1997年10月14日 00時35分 確認のテレメトリ音 151 KB (A0) 
  1997年10月14日 11時10分 確認のテレメトリ音 216 KB (異常キーイング) 

  以上 JARLのホ−ムページの http://www.jarl.or.jp/Japanese/3_Fuji/new/fuji.htm

===================== FO-20 ふじ2号 のテレメトリ観測結果 ====================

   5月29日(金)の観測結果では以前観測した単一周波数のドップラー効果で
 周波数がずれていくのみの状態でした。
                                         
   =============   JAS-2 (ふじ3号)と現在までの情報   ===========
  
  A.電話によるふじ3号の運用情報
      社団法人日本アマチュア連盟によるサービス
           TEL .   03− 3942 − 1000
  B.アマチュア無線FAXサービス
      JARLによるふじ3号の軌道情報(オービットカレンダー)
         FAX No.  03− 3233 −0055
  C.WWWブラウザで情報を簡単に見れる人のためにJAS−2
     ふじ3号の衛星としての運用されるまでの名前)の概要、打ち上げ
     までの状況、運用中における状況を説明したホームページを紹介し
     ておきます.
     社団法人日本アマチュア無線連盟(JARL)のホームページ

          http://www.jarl.or.jp/Japanese/3_Fuji/jasmenu.htm
 
     宇宙開発事業団(NASDA)ホームページ 
          http://www.nasda.go.jp/
         打上げ衛星 :地球観測プラットフォーム技術衛星(ADEOS) 
                       アマチュア衛星3号(JAS-2)
          http://spaceboy.nasda.go.jp/note/eisei/j/Eis15h_j.html#Eis15h_01_j
     http://spaceboy.nasda.go.jp/note/eisei/j/Eis15i_j.html        

  D.JAMSATによる軌道情報の活用
        JAMSATのホームページまたはjamsat−kepsの軌道要素より
      衛星の軌道情報を得る.
     JAMSATホームページ
               URL    http://www.jamsat.or.jp
       上記ホームページでは各地で行われるアマチュア通信衛星に関する
      ミューティングのお知らせや世界のアマチュア衛星に関する情報が
      満載されています.
 ========================================================================  
     JAMSATのメンバーのご協力によりJH6MME(高山 秀造)が
    執筆・編集を担当しております.ご指摘の意見、疑問やこのようにしたら
    というアイデアがありましたら小さなことでもかまいませんので気軽に下
    記アドレスまでご連絡ください.jamsat−newsからjas2
    infoへの転載をJH4PHW局坂井さんに担当して頂いております.  
                  E-mail : jh6mme@jamsat.or.jp : jh4phw@jamsat.or.jp
 ===============================   END  ===============================